EW2310 Weather Reports


Display with metric or nautical units.
time (UTC)temp
F
wind
direction
speed
MPH
gust
MPH
rain 1hr
in
rain 24hr
in
rain mn
in
humidity
%
barometer
mb
20181015165009 72 246 0.0 0.0 0.00 0.00 0.00 65 1014.3
20181015164509 72 246 0.0 0.0 0.00 0.00 0.00 65 1014.2
20181015164008 73 246 0.0 0.0 0.00 0.00 0.00 65 1014.2
20181015163509 73 246 0.0 0.0 0.00 0.00 0.00 64 1014.2
20181015163008 73 246 0.0 0.0 0.00 0.00 0.00 64 1014.1
20181015162509 73 246 0.0 0.0 0.00 0.00 0.00 64 1014.1
20181015162008 73 246 0.0 0.0 0.00 0.00 0.00 65 1014.1
20181015161508 73 246 0.0 0.0 0.00 0.00 0.00 64 1014.0
20181015161008 73 246 0.0 0.0 0.00 0.00 0.00 63 1014.0
20181015160508 74 246 0.0 0.0 0.00 0.00 0.00 62 1013.9
20181015160008 74 244 0.0 0.0 0.00 0.00 0.00 63 1013.9
20181015155508 74 244 0.0 0.0 0.00 0.00 0.00 62 1013.9
20181015155008 74 244 0.0 0.0 0.00 0.00 0.00 62 1013.8
20181015154509 74 241 0.0 0.0 0.00 0.00 0.00 62 1013.7
20181015154009 74 240 0.0 0.0 0.00 0.00 0.00 62 1013.7
20181015153508 74 239 0.0 0.0 0.00 0.00 0.00 62 1013.7
20181015153008 74 239 0.0 0.0 0.00 0.00 0.00 62 1013.7
20181015152508 74 239 0.0 0.0 0.00 0.00 0.00 62 1013.7
20181015152008 74 259 0.0 0.0 0.00 0.00 0.00 62 1013.7
20181015151508 74 260 0.0 0.0 0.00 0.00 0.00 62 1013.7
20181015151008 74 223 0.0 0.0 0.00 0.00 0.00 62 1013.7
20181015150508 74 330 0.0 1.0 0.00 0.00 0.00 62 1013.8
20181015150008 74 194 0.0 0.0 0.00 0.00 0.00 62 1013.8
20181015145508 74 85 0.0 1.0 0.00 0.00 0.00 61 1013.7
20181015145009 74 225 0.0 2.0 0.00 0.00 0.00 60 1013.7
20181015144508 75 263 0.0 3.0 0.00 0.00 0.00 59 1013.6
20181015144008 75 219 2.0 5.0 0.00 0.00 0.00 60 1013.7
20181015143508 75 199 0.0 3.0 0.00 0.00 0.00 59 1013.6
20181015143008 75 191 0.0 0.0 0.00 0.00 0.00 59 1013.5
20181015142508 76 189 0.0 3.0 0.00 0.00 0.00 58 1013.4
20181015142008 76 267 0.0 0.0 0.00 0.00 0.00 58 1013.4
20181015141508 76 234 0.0 2.0 0.00 0.00 0.00 58 1013.4
20181015141008 75 111 0.0 0.0 0.00 0.00 0.00 58 1013.5
20181015140508 76 68 0.0 0.0 0.00 0.00 0.00 58 1013.4
20181015140008 76 271 0.0 3.0 0.00 0.00 0.00 59 1013.4
20181015135508 76 260 3.0 2.0 0.00 0.00 0.00 58 1013.4
20181015135008 75 192 0.0 1.0 0.00 0.00 0.00 58 1013.4
20181015134509 76 132 0.0 2.0 0.00 0.00 0.00 58 1013.4
20181015134008 76 223 0.0 1.0 0.00 0.00 0.00 58 1013.4
20181015133508 76 175 0.0 6.0 0.00 0.00 0.00 57 1013.4
20181015133008 76 175 0.0 8.0 0.00 0.00 0.00 56 1013.3
20181015132508 76 198 0.0 0.0 0.00 0.00 0.00 57 1013.2
20181015132008 76 225 0.0 1.0 0.00 0.00 0.00 56 1013.3
20181015131508 76 142 0.0 0.0 0.00 0.00 0.00 57 1013.3
20181015131008 76 267 0.0 7.0 0.00 0.00 0.00 57 1013.2
20181015130508 75 214 0.0 17.0 0.00 0.00 0.00 58 1013.3
20181015130008 75 143 13.0 14.0 0.00 0.00 0.00 58 1013.1
20181015125508 75 67 0.0 8.0 0.00 0.00 0.00 57 1013.2
20181015125008 75 36 0.0 8.0 0.00 0.00 0.00 57 1013.2
20181015124508 75 153 0.0 3.0 0.00 0.00 0.00 57 1013.2
20181015124008 75 79 0.0 10.0 0.00 0.00 0.00 57 1013.3
20181015123508 75 100 0.0 9.0 0.00 0.00 0.00 58 1013.3
20181015123008 75 44 6.0 8.0 0.00 0.00 0.00 57 1013.4
20181015122508 75 49 0.0 8.0 0.00 0.00 0.00 58 1013.5
20181015122008 74 74 1.0 8.0 0.00 0.00 0.00 57 1013.5
20181015121508 75 41 6.0 7.0 0.00 0.00 0.00 56 1013.6
20181015121008 75 27 0.0 0.0 0.00 0.00 0.00 57 1013.6
20181015120509 75 184 0.0 0.0 0.00 0.00 0.00 58 1013.6
20181015120008 74 151 0.0 3.0 0.00 0.00 0.00 58 1013.7
20181015115508 74 143 0.0 8.0 0.00 0.00 0.00 58 1013.7
20181015115008 74 163 0.0 9.0 0.00 0.00 0.00 56 1013.7
20181015114508 75 106 7.0 11.0 0.00 0.00 0.00 57 1013.7
20181015114008 74 170 0.0 0.0 0.00 0.00 0.00 57 1013.7
20181015113508 74 161 0.0 8.0 0.00 0.00 0.00 57 1013.8
20181015113008 74 98 0.0 1.0 0.00 0.00 0.00 58 1013.8
20181015112508 74 169 0.0 3.0 0.00 0.00 0.00 58 1013.8
20181015112008 74 87 0.0 8.0 0.00 0.00 0.00 59 1013.8
20181015111508 74 72 0.0 3.0 0.00 0.00 0.00 58 1014.0
20181015111008 74 150 2.0 6.0 0.00 0.00 0.00 57 1014.1
20181015110508 73 184 0.0 6.0 0.00 0.00 0.00 58 1014.2
20181015110009 73 153 4.0 12.0 0.00 0.00 0.00 57 1014.2
20181015105508 73 143 6.0 12.0 0.00 0.00 0.00 57 1014.2
20181015105008 74 143 5.0 11.0 0.00 0.00 0.00 56 1014.2
20181015104508 74 97 0.0 3.0 0.00 0.00 0.00 57 1014.2
20181015104008 73 123 2.0 3.0 0.00 0.00 0.00 57 1014.2
20181015103508 74 128 0.0 11.0 0.00 0.00 0.00 56 1014.3
20181015103008 74 59 0.0 0.0 0.00 0.00 0.00 56 1014.2
20181015102508 73 204 0.0 4.0 0.00 0.00 0.00 56 1014.3
20181015102009 73 99 0.0 1.0 0.00 0.00 0.00 56 1014.3
20181015101508 73 109 0.0 0.0 0.00 0.00 0.00 56 1014.4
20181015101008 73 130 0.0 0.0 0.00 0.00 0.00 56 1014.3
20181015100508 73 171 0.0 2.0 0.00 0.00 0.00 55 1014.3
20181015100008 73 230 0.0 0.0 0.00 0.00 0.00 57 1014.4
20181015095508 73 257 0.0 0.0 0.00 0.00 0.00 57 1014.4
20181015095008 73 261 0.0 0.0 0.00 0.00 0.00 59 1014.3
20181015094508 72 262 0.0 3.0 0.00 0.00 0.00 60 1014.4
20181015094008 72 296 0.0 1.0 0.00 0.00 0.00 62 1014.3
20181015093508 71 306 0.0 0.0 0.00 0.00 0.00 63 1014.3
20181015093008 71 323 0.0 0.0 0.00 0.00 0.00 64 1014.3
20181015092508 70 271 0.0 0.0 0.00 0.00 0.00 66 1014.3
20181015092008 70 316 0.0 1.0 0.00 0.00 0.00 69 1014.3
20181015091519 69 298 0.0 2.0 0.00 0.00 0.00 69 1014.3
20181015091008 69 318 0.0 0.0 0.00 0.00 0.00 68 1014.3
20181015090508 69 306 0.0 0.0 0.00 0.00 0.00 72 1014.3
20181015090008 68 28 0.0 3.0 0.00 0.00 0.00 72 1014.2
20181015085508 68 17 3.0 4.0 0.00 0.00 0.00 72 1014.3
20181015085008 67 316 0.0 0.0 0.00 0.00 0.00 73 1014.3
20181015084508 67 311 0.0 0.0 0.00 0.00 0.00 74 1014.4
20181015084008 66 299 0.0 0.0 0.00 0.00 0.00 76 1014.3
20181015083508 66 323 0.0 0.0 0.00 0.00 0.00 77 1014.3
20181015083008 65 331 0.0 0.0 0.00 0.00 0.00 78 1014.2
20181015082507 64 336 0.0 0.0 0.00 0.00 0.00 78 1014.3
20181015082008 64 345 0.0 5.0 0.00 0.00 0.00 79 1014.3
20181015081508 63 342 0.0 0.0 0.00 0.00 0.00 80 1014.3
20181015081008 63 331 0.0 0.0 0.00 0.00 0.00 80 1014.3
20181015080507 62 334 0.0 0.0 0.00 0.00 0.00 80 1014.3
20181015080008 62 338 0.0 0.0 0.00 0.00 0.00 80 1014.3
20181015075508 62 308 0.0 0.0 0.00 0.00 0.00 80 1014.3
20181015075007 62 326 0.0 1.0 0.00 0.00 0.00 80 1014.2
20181015074507 62 304 0.0 2.0 0.00 0.00 0.00 79 1014.2
20181015074007 62 293 0.0 0.0 0.00 0.00 0.00 79 1014.3
20181015073507 62 310 0.0 0.0 0.00 0.00 0.00 78 1014.2
20181015073008 62 317 0.0 1.0 0.00 0.00 0.00 78 1014.2
20181015072507 62 310 0.0 0.0 0.00 0.00 0.00 79 1014.2
20181015072007 61 310 0.0 1.0 0.00 0.00 0.00 79 1014.0
20181015071509 61 310 0.0 8.0 0.00 0.00 0.00 78 1014.1
20181015071008 61 312 0.0 5.0 0.00 0.00 0.00 79 1014.1
20181015070507 61 315 0.0 5.0 0.00 0.00 0.00 79 1014.0
20181015070007 60 310 0.0 0.0 0.00 0.00 0.00 80 1013.9
20181015065507 60 307 0.0 0.0 0.00 0.00 0.00 80 1013.9
20181015065007 60 300 0.0 2.0 0.00 0.00 0.00 80 1013.9
20181015064507 60 316 0.0 3.0 0.00 0.00 0.00 80 1014.0
20181015064007 60 296 0.0 1.0 0.00 0.00 0.00 80 1014.1
20181015063508 59 318 0.0 0.0 0.00 0.00 0.00 80 1014.0
20181015063009 59 325 0.0 1.0 0.00 0.00 0.00 80 1013.9
20181015062507 59 334 0.0 0.0 0.00 0.00 0.00 81 1014.0
20181015062007 59 317 0.0 0.0 0.00 0.00 0.00 82 1014.0
20181015061507 59 316 0.0 0.0 0.00 0.00 0.00 82 1014.0
20181015061007 59 317 0.0 0.0 0.00 0.00 0.00 83 1014.1
20181015060507 58 299 0.0 0.0 0.00 0.00 0.00 83 1014.0
20181015060007 58 302 0.0 0.0 0.00 0.00 0.00 83 1014.0
20181015055507 58 314 0.0 0.0 0.00 0.00 0.00 83 1013.9
20181015055007 58 302 0.0 4.0 0.00 0.00 0.00 83 1013.9
20181015054507 58 305 0.0 3.0 0.00 0.00 0.00 83 1013.9
20181015054007 58 288 0.0 2.0 0.00 0.00 0.00 83 1013.9
20181015053507 58 323 0.0 1.0 0.00 0.00 0.00 83 1013.9
20181015053007 58 5 0.0 1.0 0.00 0.00 0.00 82 1013.8
20181015052507 58 313 0.0 0.0 0.00 0.00 0.00 83 1013.8
20181015052007 58 313 0.0 0.0 0.00 0.00 0.00 83 1013.8
20181015051507 58 314 0.0 1.0 0.00 0.00 0.00 83 1013.9
20181015051007 58 323 0.0 0.0 0.00 0.00 0.00 83 1013.8
20181015050507 58 275 0.0 1.0 0.00 0.00 0.00 83 1013.8
20181015050007 58 309 0.0 4.0 0.00 0.00 0.00 83 1013.8
20181015045507 58 311 0.0 0.0 0.00 0.00 0.00 83 1013.8
20181015045007 59 311 0.0 0.0 0.00 0.00 0.00 82 1013.8
20181015044507 59 319 0.0 4.0 0.00 0.00 0.00 82 1013.8
20181015044007 59 319 0.0 0.0 0.00 0.00 0.00 82 1013.7
20181015043507 59 306 0.0 0.0 0.00 0.00 0.00 82 1013.7
20181015043008 59 311 0.0 0.0 0.00 0.00 0.00 82 1013.6
20181015042507 59 319 0.0 0.0 0.00 0.00 0.00 82 1013.7
20181015042007 59 340 0.0 0.0 0.00 0.00 0.00 82 1013.8
20181015041507 59 321 0.0 0.0 0.00 0.00 0.00 82 1013.8
20181015041007 59 331 0.0 0.0 0.00 0.00 0.00 82 1013.8
20181015040507 59 317 0.0 0.0 0.00 0.00 0.00 82 1013.8
20181015040007 59 311 0.0 0.0 0.00 0.00 0.00 82 1013.8
20181015035508 59 315 0.0 0.0 0.00 0.00 0.00 81 1013.8
20181015035007 60 292 0.0 1.0 0.00 0.00 0.00 81 1013.9
20181015034507 60 313 0.0 0.0 0.00 0.00 0.00 81 1014.0
20181015034007 60 319 0.0 0.0 0.00 0.00 0.00 80 1014.0
20181015033507 60 294 0.0 0.0 0.00 0.00 0.00 80 1013.9
20181015033007 60 311 0.0 1.0 0.00 0.00 0.00 79 1013.8
20181015032507 60 326 0.0 0.0 0.00 0.00 0.00 80 1013.7
20181015032007 60 331 0.0 3.0 0.00 0.00 0.00 79 1013.8
20181015031507 60 314 0.0 0.0 0.00 0.00 0.00 80 1013.9
20181015031007 60 324 0.0 2.0 0.00 0.00 0.00 80 1013.9
20181015030507 60 327 0.0 0.0 0.00 0.00 0.00 81 1013.9
20181015030007 60 306 0.0 0.0 0.00 0.00 0.00 81 1013.9
20181015025507 60 305 0.0 0.0 0.00 0.00 0.00 80 1014.0
20181015025007 60 305 0.0 0.0 0.00 0.00 0.00 80 1013.9
20181015024507 60 304 0.0 0.0 0.00 0.00 0.00 80 1013.9
20181015024007 60 304 0.0 0.0 0.00 0.00 0.00 80 1013.9
20181015023507 61 303 0.0 1.0 0.00 0.00 0.00 80 1013.8
20181015023007 61 315 0.0 0.0 0.00 0.00 0.00 80 1013.9
20181015022507 61 319 0.0 3.0 0.00 0.00 0.00 79 1013.9
20181015022007 61 319 0.0 0.0 0.00 0.00 0.00 79 1014.0
20181015021507 61 319 0.0 0.0 0.00 0.00 0.00 79 1013.9
20181015021007 61 319 0.0 0.0 0.00 0.00 0.00 79 1014.0
20181015020507 61 319 0.0 0.0 0.00 0.00 0.00 79 1014.1
20181015020007 62 319 0.0 0.0 0.00 0.00 0.00 78 1014.2
20181015015507 62 319 0.0 0.0 0.00 0.00 0.00 78 1014.2
20181015015007 62 321 0.0 0.0 0.00 0.00 0.00 77 1014.3
20181015014507 63 322 0.0 0.0 0.00 0.00 0.00 75 1014.3
20181015014007 64 323 0.0 1.0 0.00 0.00 0.00 74 1014.3
20181015013507 64 323 0.0 0.0 0.00 0.00 0.00 73 1014.3
20181015013007 65 0 0.0 0.0 0.00 0.00 0.00 72 1014.3
20181015012507 65 9 0.0 0.0 0.00 0.00 0.00 71 1014.4
20181015012007 65 14 0.0 0.0 0.00 0.00 0.00 70 1014.3
20181015011507 65 14 0.0 0.0 0.00 0.00 0.00 70 1014.3
20181015011007 65 14 0.0 0.0 0.00 0.00 0.00 71 1014.3
20181015010507 65 14 0.0 0.0 0.00 0.00 0.00 71 1014.3
20181015010007 65 14 0.0 0.0 0.00 0.00 0.00 72 1014.3
20181015005507 65 14 0.0 0.0 0.00 0.00 0.00 73 1014.4
20181015005007 65 14 0.0 0.0 0.00 0.00 0.00 74 1014.5
20181015004507 64 14 0.0 0.0 0.00 0.00 0.00 74 1014.5
20181015004007 64 14 0.0 0.0 0.00 0.00 0.00 75 1014.5
20181015003507 64 19 0.0 0.0 0.00 0.00 0.00 75 1014.6
20181015003007 64 22 0.0 0.0 0.00 0.00 0.00 76 1014.7
20181015002507 64 355 0.0 2.0 0.00 0.00 0.00 76 1014.8
20181015002007 64 349 0.0 0.0 0.00 0.00 0.00 78 1014.8
20181015001507 64 349 0.0 0.0 0.00 0.00 0.00 77 1014.8
20181015001007 64 349 0.0 0.0 0.00 0.00 0.00 77 1014.8
20181015000507 65 349 0.0 0.0 0.00 0.00 0.00 77 1014.8
20181015000007 65 349 0.0 0.0 0.00 0.00 0.00 76 1014.8
20181014235507 65 349 0.0 0.0 0.00 0.00 0.00 76 1014.8
20181014235007 65 349 0.0 2.0 0.00 0.00 0.00 77 1014.9
20181014234507 65 349 0.0 0.0 0.00 0.00 0.00 77 1014.9
20181014234007 65 349 0.0 0.0 0.00 0.00 0.00 77 1014.9
20181014233508 65 349 0.0 4.0 0.00 0.00 0.00 77 1014.9
20181014233007 65 348 0.0 4.0 0.00 0.00 0.00 77 1014.9
20181014232507 65 355 0.0 0.0 0.00 0.00 0.00 78 1015.0
20181014232007 65 328 0.0 0.0 0.00 0.00 0.00 78 1015.0
20181014231506 65 5 0.0 0.0 0.00 0.00 0.00 78 1015.0
20181014231007 65 9 0.0 0.0 0.00 0.00 0.00 78 1015.0
20181014230507 65 331 0.0 0.0 0.00 0.00 0.00 78 1015.1
20181014230007 65 331 0.0 0.0 0.00 0.00 0.00 77 1015.1
20181014225506 65 331 0.0 0.0 0.00 0.00 0.00 77 1015.1
20181014225006 65 333 0.0 0.0 0.00 0.00 0.00 77 1015.1
20181014224508 65 348 0.0 0.0 0.00 0.00 0.00 77 1015.1
20181014224007 65 348 0.0 0.0 0.00 0.00 0.00 78 1015.1
20181014223507 65 329 0.0 0.0 0.00 0.00 0.00 78 1015.2
20181014223006 65 317 0.0 0.0 0.00 0.00 0.00 78 1015.2
20181014222506 65 316 0.0 0.0 0.00 0.00 0.00 78 1015.1
20181014222007 65 315 0.0 0.0 0.00 0.00 0.00 78 1015.1
20181014221506 65 315 0.0 0.0 0.00 0.00 0.00 78 1015.2
20181014221006 65 315 0.0 0.0 0.00 0.00 0.00 77 1015.1
20181014220506 65 315 0.0 0.0 0.00 0.00 0.00 78 1015.0
20181014220006 65 315 0.0 0.0 0.00 0.00 0.00 78 1015.1
20181014215506 65 315 0.0 0.0 0.00 0.00 0.00 78 1015.1
20181014215006 65 315 0.0 0.0 0.00 0.00 0.00 78 1015.1
20181014214506 66 315 0.0 0.0 0.00 0.00 0.00 77 1015.1
20181014214007 66 315 0.0 0.0 0.00 0.00 0.00 77 1015.2
20181014213506 66 330 0.0 0.0 0.00 0.00 0.00 77 1015.1
20181014213006 66 330 0.0 0.0 0.00 0.00 0.00 78 1015.2
20181014212507 66 330 0.0 0.0 0.00 0.00 0.00 77 1015.2
20181014212006 66 330 0.0 0.0 0.00 0.00 0.00 77 1015.2
20181014211506 66 330 0.0 0.0 0.00 0.00 0.00 77 1015.3
20181014211006 66 330 0.0 0.0 0.00 0.00 0.00 77 1015.3
20181014210506 66 330 0.0 0.0 0.00 0.00 0.00 77 1015.3
20181014210007 66 330 0.0 0.0 0.00 0.00 0.00 77 1015.2
20181014205506 66 330 0.0 0.0 0.00 0.00 0.00 77 1015.1
20181014205006 66 330 0.0 0.0 0.00 0.00 0.00 76 1015.2
20181014204506 66 330 0.0 0.0 0.00 0.00 0.00 76 1015.2
20181014204006 66 330 0.0 0.0 0.00 0.00 0.00 76 1015.2
20181014203506 66 330 0.0 0.0 0.00 0.00 0.00 76 1015.2
20181014203006 66 330 0.0 0.0 0.00 0.00 0.00 77 1015.2
20181014202506 66 329 0.0 0.0 0.00 0.00 0.00 77 1015.2
20181014202006 66 340 0.0 0.0 0.00 0.00 0.00 77 1015.3
20181014201506 66 325 0.0 0.0 0.00 0.00 0.00 77 1015.3
20181014201006 66 324 0.0 0.0 0.00 0.00 0.00 77 1015.3
20181014200506 66 243 0.0 0.0 0.00 0.00 0.00 77 1015.4
20181014200006 66 243 0.0 0.0 0.00 0.00 0.00 77 1015.4
20181014195506 66 243 0.0 0.0 0.00 0.00 0.00 77 1015.3
20181014195006 66 242 0.0 0.0 0.00 0.00 0.00 77 1015.4
20181014194506 66 222 0.0 0.0 0.00 0.00 0.00 77 1015.4
20181014194006 66 222 0.0 0.0 0.00 0.00 0.00 77 1015.3
20181014193506 66 222 0.0 0.0 0.00 0.00 0.00 77 1015.3
20181014193006 66 218 0.0 0.0 0.00 0.00 0.00 76 1015.3
20181014192506 66 218 0.0 0.0 0.00 0.00 0.00 76 1015.3
20181014192006 66 217 0.0 0.0 0.00 0.00 0.00 76 1015.3
20181014191507 67 219 0.0 0.0 0.00 0.00 0.00 76 1015.3
20181014191006 67 219 0.0 0.0 0.00 0.00 0.00 75 1015.4
20181014190506 67 219 0.0 0.0 0.00 0.00 0.00 75 1015.3
20181014190006 67 219 0.0 0.0 0.00 0.00 0.00 75 1015.3
20181014185506 67 219 0.0 0.0 0.00 0.00 0.00 75 1015.3
20181014185006 67 219 0.0 0.0 0.00 0.00 0.00 75 1015.4
20181014184506 68 219 0.0 0.0 0.00 0.00 0.00 75 1015.3
20181014184006 68 219 0.0 0.0 0.00 0.00 0.00 74 1015.3
20181014183506 68 219 0.0 0.0 0.00 0.00 0.00 74 1015.3
20181014183006 68 219 0.0 0.0 0.00 0.00 0.00 74 1015.3
20181014182506 68 219 0.0 0.0 0.00 0.00 0.00 74 1015.3
20181014182006 68 219 0.0 0.0 0.00 0.00 0.00 74 1015.3
20181014181506 68 219 0.0 0.0 0.00 0.00 0.00 74 1015.2
20181014181006 68 219 0.0 0.0 0.00 0.00 0.00 74 1015.3
20181014180506 68 219 0.0 0.0 0.00 0.00 0.00 74 1015.2
20181014180006 68 219 0.0 0.0 0.00 0.00 0.00 73 1015.2
20181014175506 69 219 0.0 0.0 0.00 0.00 0.00 73 1015.1
20181014175006 69 219 0.0 0.0 0.00 0.00 0.00 72 1015.2
20181014174506 69 219 0.0 0.0 0.00 0.00 0.00 72 1015.1
20181014174006 69 219 0.0 0.0 0.00 0.00 0.00 71 1015.1
20181014173506 69 219 0.0 0.0 0.00 0.00 0.00 71 1015.2
20181014173008 69 219 0.0 0.0 0.00 0.00 0.00 71 1015.1
20181014172506 70 219 0.0 0.0 0.00 0.00 0.00 71 1015.0
20181014172006 70 219 0.0 0.0 0.00 0.00 0.00 71 1015.0
20181014171506 70 219 0.0 0.0 0.00 0.00 0.00 70 1014.9
20181014171006 70 219 0.0 0.0 0.00 0.00 0.00 70 1014.8
20181014170506 70 219 0.0 0.0 0.00 0.00 0.00 70 1014.9
20181014170006 70 219 0.0 0.0 0.00 0.00 0.00 70 1014.8
20181014165506 70 219 0.0 0.0 0.00 0.00 0.00 70 1014.8